www.pogodaiklimat.ru

Погода и климат >> Архив погоды >> Австралия >> Квинсленд >> Хьюэнден


ПОГОДА в Хьюэндене

  • Прогноз погоды в Хьюэндене
  • Монитор погоды в Хьюэндене

АРХИВ ПОГОДЫ в Хьюэндене

Время (UTC), дата Ветер
(напр.,м/с)
 
Видим.   Явления Облачность Т
(С)
Тd
(С)
f
(%)
Тe
(С)
Тes
(С)
Комфортность P
(гПа)
Po
(гПа)
Тmin
(С)
Tmax
(С)
R
(мм)
R24
(мм)
S
(см)
20 11.07 штиль 0 н/о н/о +7.7 +4.7 81 +7 +7 1021.8 984.7
23 11.07 штиль 0 н/о н/о +16.9 +6.7 51 +17 +17 1022.7 985.6
02 12.07 В 6 н/о н/о +23.4 +0.5 22 +22 +22 комфорт 1020.9 983.9 +7.2
05 12.07 ЮВ 4 н/о н/о +25.2 +0.7 20 +24 +24 комфорт 1018.3 981.4
08 12.07 ЮВ 3 н/о н/о +20.2 +2.5 31 +21 +21 комфорт 1018.9 981.9
11 12.07 ЮВ 3 н/о н/о +13.9 +4.2 52 +13 +13 1020.7 983.7
14 12.07 В 3 н/о н/о +11.7 +6.0 68 +10 +10 1020.9 983.9 +25.7
17 12.07 СВ 2 н/о н/о +8.8 +5.0 77 +8 +8 1019.2 982.2
20 12.07 С 1 н/о н/о +6.6 +3.8 82 +6 +6 1020.3 983.3
23 12.07 В 3 н/о н/о +16.2 +4.9 47 +16 +16 1022.7 985.6
02 13.07 Ю 6 н/о н/о +22.7 +2.8 27 +22 +22 комфорт 1021.6 984.5 +6.0
05 13.07 Ю 5 н/о н/о +24.1 +2.9 25 +23 +23 комфорт 1019.1 982.1
08 13.07 Ю 5 н/о н/о +19.5 +2.8 33 +20 +20 1019.9 982.9
11 13.07 ЮВ 2 н/о н/о +11.9 +5.1 63 +11 +11 1021.4 984.3
14 13.07 ЮВ 2 н/о н/о +8.9 +4.7 75 +8 +8 1021.7 984.6 +24.6
17 13.07 ЮВ 2 н/о н/о +9.1 +2.4 63 +8 +8 1020.7 983.7
20 13.07 Ю 3 н/о н/о +6.6 +2.7 76 +4 +4 1021.2 984.1
23 13.07 ЮВ 6 н/о н/о +15.4 +4.5 48 +14 +14 1022.8 985.7
02 14.07 В 6 н/о н/о +19.1 +2.9 34 +19 +19 1021.6 984.5 +5.8
05 14.07 ЮВ 5 н/о н/о +21.5 +3.7 31 +22 +22 комфорт 1019.4 982.4
08 14.07 Ю 4 н/о н/о +17.4 +3.0 38 +17 +17 1020.0 983.0
11 14.07 Ю 4 н/о н/о +12.1 +2.6 52 +11 +11 1022.2 985.1
14 14.07 ЮВ 3 н/о н/о +8.8 +1.0 58 +7 +7 1022.1 985.0 +22.4
17 14.07 ЮВ 3 н/о н/о +7.1 -1.3 55 +5 +5 1021.5 984.4
20 14.07 ЮВ 4 н/о н/о +6.5 -2.4 53 +4 +4 1021.9 984.8
23 14.07 ЮВ 5 н/о н/о +12.8 -2.3 35 +11 +11 1024.1 986.9
02 15.07 ЮВ 5 н/о н/о +17.3 -2.4 26 +17 +17 1022.6 985.5 +6.1
05 15.07 ЮВ 4 н/о н/о +20.5 -4.6 18 +20 +20 1019.8 982.8
08 15.07 ЮВ 4 н/о н/о +16.4 -4.2 24 +16 +16 1019.9 982.9
11 15.07 ЮВ 3 н/о н/о +9.9 -3.7 38 +9 +9 1021.4 984.3
14 15.07 С 3 н/о н/о +4.9 -1.1 65 +2 +2 1020.6 983.6 +21.2
17 15.07 ЮВ 2 н/о н/о +2.7 -1.5 74 -0 -0 1020.0 983.0
20 15.07 С 2 н/о н/о +1.4 -1.8 79 -2 -2 1020.2 983.2
23 15.07 В 6 н/о н/о +12.6 -0.6 40 +10 +10 1021.6 984.5
02 16.07 В 6 н/о н/о +19.8 +0.3 27 +20 +20 1020.5 983.5 +1.3
05 16.07 В 4 н/о н/о +23.2 +0.3 22 +22 +22 комфорт 1017.8 980.9
08 16.07 ЮВ 2 н/о н/о +19.3 +0.8 29 +20 +20 1018.7 981.7
11 16.07 ЮВ 3 н/о н/о +12.4 +2.0 49 +11 +11 1020.1 983.1
14 16.07 ЮВ 3 н/о н/о +11.5 +2.8 55 +10 +10 1019.8 982.8 +23.7
17 16.07 С 2 н/о н/о +7.3 +2.4 71 +5 +5 1018.9 981.9
20 16.07 ЮВ 3 н/о н/о +4.0 +1.0 81 0 0 1018.2 981.3
23 16.07 В 4 н/о н/о +15.1 +3.6 46 +14 +14 1020.3 983.3
05 17.07 В 6 н/о н/о +23.3 -3.1 17 +22 +22 комфорт 1016.8 979.9
08 17.07 В 4 н/о н/о +18.1 -1.7 26 +18 +18 1017.4 980.5
11 17.07 ЮВ 3 н/о н/о +13.1 +0.5 42 +12 +12 1019.4 982.4
14 17.07 В 3 н/о н/о +9.3 +1.5 58 +7 +7 1019.4 982.4 +24.3
17 17.07 СВ 2 н/о н/о +4.8 +0.2 72 +2 +2 1018.6 981.6
20 17.07 штиль 0 н/о н/о +3.8 +0.3 78 +3 +3 1018.8 981.8
23 17.07 СВ 4 н/о н/о +16.5 -0.7 31 +16 +16 1020.5 983.5
02 18.07 ЮВ 5 н/о н/о +21.0 -4.2 18 +21 +21 комфорт 1019.4 982.4 +2.4
05 18.07 Ю 4 н/о н/о +23.6 -6.4 13 +22 +22 комфорт 1016.3 979.4
08 18.07 Ю 3 н/о н/о +19.1 -5.0 19 +19 +19 1017.0 980.1
11 18.07 ЮВ 4 н/о н/о +11.7 -3.6 34 +10 +10 1018.3 981.4
17 18.07 С 3 н/о н/о +7.2 -1.7 53 +5 +5 1018.5 981.5

 

Местоположение метеостанции Хьюэнден (Квинсленд, Австралия): широта -20.82 долгота 144.23 высота над уровнем моря 316 м.

В архиве по умолчанию представлена погода в Хьюэндене за последнюю неделю. Архивные данные за месяц целиком и за предыдущие месяцы, начиная с января 2011 года, Вы можете получить, выбрав интересующий диапазон дат из раскрывающегося списка и нажав кнопку "Ввод!".


*Определитесь, кто Вы:
робот инопланетянин человек

Внимание! Время в таблицах - всемирное. Для получения местного времени необходимо прибавить поправку, которая равна 10 ч.

Смотрите также архив погоды в соседних городах и на ближайших метеорологических станциях:

Погода в Ричмонд аэропорту (Квинсленд, Австралия) (117 км)
Погода в Уинтоне (Квинсленд, Австралия) (209 км)
Погода в Джулия Крик (Квинсленд, Австралия) (261 км)
Погода в Вулшеде (Квинсленд, Австралия) (286 км)
Погода в Джорджтауне (Квинсленд, Австралия) (290 км)
Погода в Лонгриче (Квинсленд, Австралия) (290 км)
Погода в Таунсвилле (Квинсленд, Австралия) (317 км)
Погода в Лусинде (Квинсленд, Австралия) (342 км)
Погода в Эре (Квинсленд, Австралия) (355 км)
Погода в Аэропорту Трепелл (Квинсленд, Австралия) (365 км)

Пояснения к столбцам:

Ветер - указаны скорость ветра в м/с - средняя за 10 мин, порывы в срок и между сроками (в фигурных скобках) и направление, откуда дует ветер: С - северный, СВ - северо-восточный, В - восточный, ЮВ - юго-восточный, Ю - южный, ЮЗ - юго-западный, З - западный, СЗ - северо-западный.
Видимость - горизонтальная дальность видимости в метрах или километрах. При видимости от 1 до 10 км при отсутствии осадков обычно наблюдается дымка, при ухудшении видимости до 1 км и менее - туман. В сухую погоду видимость может ухудшаться дымом, пылью или мглою.
Явления - указаны атмосферные явления, наблюдавшиеся в срок или в последний час перед сроком; фигурными скобками обозначены явления, наблюдавшиеся между сроками (за 1-3 часа до срока); квадратными скобками обозначены град или гололедные отложения с указанием их диаметра в мм.
Облачность - указаны через наклонную черту общая и нижняя облачность в баллах и высота нижней границы облаков в метрах; квадратными скобками обозначены формы облаков: Ci - перистые, Cs - перисто-слоистые, Cc - перисто-кучевые, Ac - высококучевые, As - высокослоистые, Sc - слоисто-кучевые, Ns - слоисто-дождевые, Cu - кучевые, Cb - кучево-дождевые. Подробнее классификацию облаков см. в Атласе облаков (PDF).
T - Температура воздуха - температура, измеренная на высоте 2 м над землей.
Td - Температура точки росы - температура, при понижении до которой содержащийся в воздухе водяной пар достигнет насыщения.
f - Относительная влажность воздуха - влажноcть воздуха, измеренная на высоте 2 м над землей.
Te - Эффективная температура - температура, которую ощущает одетый по сезону человек в тени. Характеристика душности погоды. При расчете учитывается влияние влажности воздуха и скорости ветра на теплоощущения человека.
Tes - Эффективная температура на солнце - температура, которую ощущает человек, с поправкой на солнечный нагрев. Характеристика знойности погоды. Зависит от высоты солнца над горизонтом, облачности и скорости ветра. Ночью, в пасмурную погоду, а также при ветре 12 м/с и более поправка равна нулю.
P - Атмосферное давление - приведенное к уровню моря атмосферное давление.
Po - Атмосферное давление - измеренное на уровне метеостанции атмосферное давление.
Tmin - Минимальная температура - минимум температуры воздуха на высоте 2 м над землей.
Tmax - Максимальная температура - максимум температуры воздуха на высоте 2 м над землей.
R - Количество осадков - Количество выпавших осадков за период времени, мм. При наведении курсора мыши на число - период времени, за который выпало указанное количество осадков.
R24 - Количество осадков - Количество выпавших осадков за 24 часа, мм.
S - Снежный покров - Высота снежного покрова, см. При наведении курсора мыши на число - состояние снежного покрова и степень покрытия местности в баллах.